Location: Antioch Baptist Church
(32.6696°N, 85.7327°W)
Time: 09:58:40
(UTC+00:00)

Cosmos-2242 - Pass Details

Date: 07 November 2020
Orbit: 592 x 616 km, 82.5° (Epoch: 26 November)

Event Time Altitude Azimuth Distance (km) Brightness Sun altitude
Rises 23:47:55 0° 192° (SSW) 2,819 6.8 -13.2°
Reaches altitude 10° 23:50:07 10° 196° (SSW) 1,925 5.9 -13.7°
Maximum altitude 23:54:20 62° 277° (W) 674 3.5 -14.6°
Drops below altitude 10° 23:58:36 10° 359° (N) 1,951 5.5 -15.5°
Sets 00:00:51 0° 3° (N) 2,863 6.3 -15.9°
